Regional Weather Roundup
Issued by NWS Cleveland, OH

Home | Current Version | Previous Version | Graphics & Text | Print | Product List | Glossary On
Versions: 1 2 3 4 5 6 7 8 9 10 11 12 13 14 15 16 17 18 19 20 21 22 23 24 25 26 27 28 29 30 31 32 33 34 35 36 37 38 39 40 41 42 43 44 45 46 47 48 49 50
000
ASUS41 KCLE 041302
RWRCLE
OHIO REGIONAL WEATHER ROUNDUP
NATIONAL WEATHER SERVICE CLEVELAND, OH
900 AM EDT FRI SEP 04 2015

NOTE: "FAIR" INDICATES FEW OR NO CLOUDS BELOW 12,000 FEET WITH NO
SIGNIFICANT WEATHER AND/OR OBSTRUCTIONS TO VISIBILITY.

OHZ001>008-015>018-024>027-034-035-043-044-041400-
   NORTHWEST OHIO

CITY           SKY/WX    TMP DP  RH WIND       PRES   REMARKS
DEFIANCE       SUNNY     73  69  87 S3        30.01R FOG
FINDLAY        PTSUNNY   74  67  78 S10       30.02R
TOLEDO EXPRESS SUNNY     70  67  90 S6        30.00R
TOLEDO EXEC    SUNNY     72  66  81 S10       30.01R
LIMA           PTSUNNY   73  67  81 S10       30.03R
$$

OHZ009>014-019>023-028>033-038-089-041400-
   NORTHEAST OHIO

CITY           SKY/WX    TMP DP  RH WIND       PRES   REMARKS
CLE-HOPKINS    TSTM      69  66  90 SE6       30.06R
CLE-LAKEFRONT  CLOUDY    71  65  81 S7        30.03R
CUY CO. ARPT   PTSUNNY   72  66  83 CALM      30.05R
LORAIN-ELYRIA  LGT RAIN  67  64  90 S16       30.05R
ASHTABULA      MOSUNNY   71  68  90 S6        30.08R
AKRON-CANTON   LGT RAIN  68  65  90 W7        30.09R FOG
WOOSTER        LGT RAIN  66  65  96 S8        30.10S
MANSFIELD      PTSUNNY   68  65  90 SE9       30.08R
YOUNGSTOWN     CLOUDY    68  66  93 S3        30.09R FOG
$$

OHZ042-051>053-060>062-070>072-077>081-041400-
  SOUTHWEST OHIO

CITY           SKY/WX    TMP DP  RH WIND       PRES   REMARKS
CINC-COVINGTON MOSUNNY   74  70  87 CALM      30.05R
CINC-LUNKEN    SUNNY     71  70  96 CALM      30.05R FOG
HAMILTON       SUNNY     74  70  87 CALM      30.05S FOG
DAYTON         PTSUNNY   74  69  85 S5        30.05S
WRIGHT-PAT AFB MOSUNNY   72  69  88 SE3       30.05R
DAYTON GENERAL SUNNY     74  67  78 S5        30.04S
WILMINGTON     MOSUNNY   73  68  84 CALM      30.06S HAZE
$$

OHZ036-037-039>041-045>050-054>059-063>069-073>076-082>088-041400-
  CENTRAL AND SOUTHEAST OHIO

CITY           SKY/WX    TMP DP  RH WIND       PRES   REMARKS
COLUMBUS       CLOUDY    70  66  87 SE5       30.05S
OSU AIRPORT    CLOUDY    71  66  84 SE5       30.06R
BOLTON FIELD   SUNNY     70  66  88 SE3       30.06S
RICKENBACK AFB CLOUDY    69  66  89 SE5       30.06R
NEWARK         CLOUDY    69  66  90 E3        30.07R
MARION         MOSUNNY   70  66  87 S10       30.06R
LANCASTER      CLOUDY    70  65  84 SE7       30.07R
ZANESVILLE     RAIN      67  65  93 SE7       30.07F FOG
NEW PHILLY     LGT RAIN  68  66  93 NW6       30.11R
$$



USA.gov is the U.S. government's official web portal to all federal, state and local government web resources and services.